Theta_e
297 298 298 298 298 298 298 298 297 297 298 298 298 298 296 297 297 296 295 296 295 293 295 297 298 297 296 295 296 295 296 295 292 290 291 285 289 293 296 296 296 297 291 292 288 289 294 300 299 298 298 298 299 302
298 297 298 299 299 299 299 299 298 297 298 299 297 298 297 296 297 296 295 296 295 292 292 296 297 298 297 295 294 293 295 293 291 288 285 284 288 289 293 294 294 296 294 293 293 292 296 299 298 298 299 299 299 299
297 298 299 299 299 299 299 299 299 298 298 299 298 298 297 296 297 295 296 296 296 289 290 292 294 296 298 297 296 294 293 293 293 291 288 288 293 292 294 295 295 295 296 296 297 295 296 297 296 297 299 298 299 297
297 298 299 299 299 300 300 299 300 299 298 299 299 298 298 297 297 295 296 296 295 292 288 292 294 295 297 297 295 295 294 293 291 291 289 291 295 293 293 295 294 294 295 297 296 295 295 294 294 295 295 296 296 296
298 298 299 299 300 301 301 300 300 298 298 299 299 298 298 296 297 295 295 296 294 293 291 291 293 295 296 297 296 295 294 292 292 291 288 292 293 293 292 293 295 293 295 294 294 294 294 294 294 295 295 296 296 296
297 298 299 299 300 301 301 300 299 298 299 298 298 298 298 297 294 295 294 294 294 295 289 290 292 294 295 295 294 293 291 291 290 290 291 292 292 293 291 294 294 294 295 295 295 294 294 294 294 294 295 295 295 297
297 298 299 299 299 299 299 299 299 299 299 298 298 298 297 295 294 293 292 295 295 295 290 290 291 293 295 294 292 292 292 287 289 288 289 292 293 293 289 295 295 295 295 295 295 295 295 294 294 294 295 295 296 299
296 297 298 298 298 298 299 299 299 299 298 298 298 298 295 293 294 295 294 295 295 294 291 289 292 292 294 294 292 291 289 287 290 290 289 294 294 293 297 296 297 297 297 297 297 296 295 295 294 294 294 295 302 303
296 296 297 297 297 298 299 297 297 297 298 298 296 294 293 294 293 296 296 295 295 294 292 294 293 291 289 291 291 293 292 296 292 297 297 297 296 299 298 298 297 297 298 297 296 293 294 294 294 294 300 299 298 297
296 296 296 297 297 297 297 298 298 297 296 293 294 294 295 295 295 295 295 295 292 292 291 293 292 293 291 287 290 286 294 298 297 294 292 297 299 297 299 298 298 298 298 296 294 295 298 299 298 300 298 296 295 294
296 296 294 297 298 298 298 296 295 295 295 294 293 295 296 296 295 293 296 294 293 294 293 294 292 293 291 293 290 287 288 292 295 294 295 298 298 300 298 297 297 295 294 296 297 297 297 298 298 298 295 294 293 293
296 296 296 296 296 296 296 295 295 296 294 294 294 294 294 294 294 294 292 295 294 295 293 293 293 292 292 290 291 292 294 295 295 288 297 298 297 298 297 297 296 294 294 294 294 293 294 294 293 292 292 291 291 291
297 296 295 295 296 296 296 296 296 295 295 295 295 295 294 293 288 290 292 296 293 293 292 293 292 292 291 292 291 294 297 294 295 297 299 299 299 296 295 296 295 294 293 293 293 292 291 291 290 290 290 289 290 290
295 296 296 295 295 296 295 295 295 295 295 293 293 291 291 291 292 292 294 294 293 291 291 292 290 292 294 292 291 295 294 296 298 298 298 299 296 295 294 293 293 293 292 291 291 290 289 289 288 288 288 289 289 289
294 295 295 295 295 295 295 294 294 294 294 296 294 291 290 290 288 289 288 290 289 289 292 291 291 292 294 292 295 294 297 299 300 297 298 296 294 293 293 293 292 291 291 290 290 289 288 288 287 287 288 288 288 287
293 293 293 294 294 295 295 294 294 293 293 293 294 291 287 286 281 290 290 288 289 288 288 290 293 289 291 293 297 297 300 299 297 299 294 292 293 293 293 292 291 291 290 290 289 289 288 288 287 287 287 286 286 286
293 292 291 295 295 294 295 295 293 291 293 294 294 292 288 283 282 280 283 288 288 290 291 294 293 296 294 296 299 298 296 296 294 295 294 292 293 292 292 291 291 290 290 289 289 289 289 288 289 288 287 286 286 285
292 291 291 292 295 295 295 294 292 293 294 293 292 292 292 292 290 292 292 288 291 293 294 294 293 295 291 297 296 295 297 295 292 294 292 293 292 292 292 292 291 291 290 289 288 289 289 289 289 288 288 287 286 285
289 290 290 290 294 294 295 295 294 295 294 294 293 293 293 291 293 293 293 293 290 291 292 292 294 293 293 294 294 295 297 296 295 294 293 293 292 292 292 292 291 290 290 289 290 290 290 289 289 289 289 288 286 285
290 290 289 289 289 291 293 292 295 296 297 293 294 294 294 292 292 291 294 294 296 293 294 294 293 293 293 294 294 294 294 292 293 292 291 291 292 292 292 291 291 291 290 290 290 290 290 288 288 288 289 288 286 284
291 291 291 290 289 291 291 292 292 293 296 294 294 294 294 294 292 293 293 294 294 295 295 292 293 292 290 290 291 291 292 293 294 294 294 294 292 290 292 293 292 291 290 289 289 289 289 288 288 288 288 286 285 284
291 292 292 292 291 290 289 289 291 291 293 295 295 294 292 293 293 295 293 293 292 289 288 290 292 292 290 290 289 289 290 291 291 291 291 292 293 293 292 292 291 288 289 289 290 289 289 288 287 287 286 285 284 284
290 291 289 287 287 285 287 288 292 292 293 294 294 294 294 294 293 292 292 289 288 287 288 289 291 290 289 287 287 287 287 289 290 290 290 290 290 290 290 290 291 291 289 289 291 290 289 288 287 286 285 284 284 283
286 284 284 283 285 282 285 285 291 292 291 293 295 294 293 293 293 289 286 286 286 286 286 288 287 286 286 286 285 285 286 287 288 289 289 289 289 288 289 289 290 291 291 291 290 290 288 287 286 285 284 284 283 283
283 281 281 280 283 283 284 285 287 291 288 289 292 290 291 295 290 286 284 283 281 279 281 284 286 286 283 282 281 285 286 287 288 287 288 288 288 288 288 288 288 290 290 290 289 288 287 286 285 285 284 283 283 283
275 276 278 278 279 284 286 285 285 287 286 287 288 286 290 288 286 283 283 277 279 277 276 281 283 284 284 284 283 284 284 284 285 284 286 287 287 288 288 288 286 289 288 289 290 289 287 286 286 285 284 284 283 283
272 272 279 281 281 283 284 283 284 284 284 283 284 285 285 284 282 280 279 277 277 276 278 279 280 281 282 281 281 282 282 282 283 284 285 286 287 287 287 286 286 286 287 288 289 289 289 287 285 285 284 284 284 283
274 275 272 272 275 280 280 281 281 282 283 282 282 281 281 279 276 276 276 275 275 275 276 276 277 277 278 279 279 279 280 281 283 286 286 286 285 285 285 285 286 286 286 286 286 287 288 288 287 286 285 284 284 283
271 272 273 269 268 275 275 277 278 280 282 281 281 280 278 275 274 274 274 273 274 274 273 273 274 276 278 279 278 278 278 278 279 281 280 278 277 280 281 283 284 284 285 285 285 286 287 288 288 287 286 285 285 284
270 273 270 266 268 272 271 271 271 273 278 280 278 276 275 274 273 273 273 272 272 271 272 272 272 273 273 274 274 277 278 278 278 277 276 276 276 278 279 280 282 283 284 284 285 285 286 287 287 286 285 284 284 283
271 265 269 270 269 268 266 260 261 269 276 274 276 275 274 272 273 272 272 271 271 271 271 271 272 272 272 272 273 272 272 276 276 277 277 278 278 278 278 279 279 281 282 283 285 285 285 286 286 285 284 284 283 283
261 265 266 269 268 266 261 261 266 271 271 272 274 275 273 271 271 270 272 272 271 271 271 271 270 271 272 273 273 273 274 274 275 275 276 276 277 277 278 278 278 280 281 282 283 285 285 285 285 286 285 284 284 283
260 257 258 261 264 266 263 266 274 275 269 270 270 272 272 272 273 271 272 272 271 271 270 271 272 272 272 272 272 273 273 274 274 274 275 275 276 276 277 277 278 279 281 282 283 284 284 285 285 285 285 285 284 283
Wind_Speed
24 23 22 23 21 21 25 27 30 30 30 32 33 34 33 32 30 21 14 18 9 2 1 2 3 4 3 3 4 3 4 1 3 3 3 3 3 4 1 3 4 7 6 4 3 3 7 6 3 3 9 11 14 14
27 24 24 22 22 22 25 29 32 34 33 32 35 35 34 33 34 25 10 15 12 4 4 2 3 4 4 4 4 1 3 5 5 4 1 3 1 1 3 3 3 4 7 4 8 7 5 6 7 12 9 14 16 10
26 25 22 19 20 22 25 29 34 36 35 34 36 37 36 35 37 28 22 20 10 3 3 2 4 9 10 5 5 3 3 4 3 3 4 2 2 4 4 6 5 4 5 4 2 9 12 12 9 12 12 15 12 15
26 24 21 18 18 20 26 31 36 39 36 35 36 39 40 39 37 27 25 22 13 3 3 3 2 3 11 12 11 6 6 5 5 3 3 3 3 5 4 6 6 5 4 4 6 15 10 13 11 11 12 7 12 15
25 23 19 16 15 6 23 32 38 38 37 38 37 40 41 40 35 23 21 26 15 3 4 2 2 6 19 26 15 7 8 4 2 2 2 3 2 1 3 1 10 7 15 6 10 17 6 12 12 7 9 12 13 16
23 20 20 17 15 20 29 34 35 35 36 38 38 42 43 40 32 24 3 18 19 3 3 1 2 1 6 13 12 5 4 3 3 3 3 3 2 4 3 6 12 9 14 15 18 18 14 16 16 7 12 13 14 14
22 20 18 17 18 21 25 28 30 33 35 34 40 41 42 33 30 5 4 13 28 4 2 2 2 1 3 5 2 2 2 1 3 2 2 4 4 4 4 16 32 11 11 11 12 12 17 14 13 7 9 12 16 16
21 19 19 18 20 22 26 27 25 26 30 35 41 39 40 29 15 5 7 29 27 8 2 2 2 2 1 2 2 0 2 2 0 3 1 2 2 3 6 14 16 9 8 13 17 19 19 18 7 8 8 10 9 7
20 22 17 19 21 26 31 32 32 35 38 41 46 40 20 7 3 8 24 20 8 3 3 2 2 3 2 2 2 2 2 1 1 3 3 3 3 6 11 14 13 12 7 6 9 8 8 8 9 7 6 3 1 5
20 22 21 20 25 27 30 35 40 48 48 45 27 6 3 6 36 22 5 2 3 3 2 1 0 2 3 1 1 3 1 1 2 4 1 3 4 4 6 15 16 11 8 8 6 5 4 4 4 0 1 2 4 5
21 24 28 32 34 36 41 43 45 43 28 6 2 3 24 23 4 2 3 3 2 1 3 3 4 2 1 3 2 1 3 2 2 3 2 2 3 2 8 12 7 2 4 3 2 5 5 3 1 2 3 5 5 5
21 23 25 31 38 39 37 30 20 10 4 8 15 11 6 3 3 3 2 3 3 4 3 4 4 3 1 2 3 2 2 2 5 2 2 3 2 4 7 8 9 8 7 8 8 6 5 6 6 6 5 5 5 6
20 22 25 26 27 25 17 14 18 35 23 11 5 3 2 2 4 4 5 2 2 4 4 3 2 3 1 2 2 3 3 4 0 2 3 2 2 4 6 5 6 7 7 7 6 7 10 8 10 7 5 8 9 8
17 21 17 17 21 20 21 28 13 3 5 3 3 3 3 3 3 4 3 3 3 3 5 3 2 2 2 2 2 3 4 1 3 2 3 1 3 4 4 5 5 6 7 7 7 6 6 5 4 9 11 11 10 8
14 15 16 16 16 12 13 13 7 5 2 0 2 3 3 2 1 0 0 1 1 4 4 3 3 2 2 2 3 1 2 3 3 3 2 1 3 3 4 4 4 5 4 5 5 5 5 6 5 6 11 12 12 10
4 7 13 5 4 7 9 8 6 1 1 1 1 3 1 3 3 0 1 2 3 3 2 2 3 3 2 3 3 5 2 4 3 2 2 2 3 3 2 3 3 3 3 3 4 4 5 6 5 5 11 12 12 13
4 4 7 4 6 3 2 3 2 3 1 1 1 1 2 1 3 2 2 2 3 3 3 3 4 5 2 2 3 3 4 2 1 1 2 3 3 2 1 1 0 1 2 2 3 5 4 4 3 4 4 8 11 13
3 4 6 4 5 3 0 1 2 1 1 2 2 2 2 2 2 2 2 2 3 3 3 3 3 2 4 4 2 2 2 1 1 1 3 3 4 3 3 3 4 3 2 1 1 2 2 2 2 1 3 4 6 8
5 4 4 3 2 0 0 1 1 2 3 2 1 2 1 1 2 1 2 3 3 1 4 2 3 3 3 2 2 1 2 2 2 2 3 4 7 6 7 8 8 7 5 3 1 2 2 1 1 2 1 2 4 5
3 3 1 2 2 1 1 1 3 2 1 2 1 2 1 1 1 1 0 0 3 3 2 2 2 2 1 2 1 2 1 1 3 1 1 2 4 5 3 3 4 6 5 5 4 3 3 1 1 3 1 1 3 4
2 5 3 1 1 1 2 1 1 2 1 1 1 2 1 1 0 1 1 0 2 2 2 1 3 2 4 4 6 4 2 4 3 2 1 1 1 2 5 6 5 6 5 3 2 4 5 5 3 2 1 1 4 6
4 3 1 2 1 1 1 1 1 1 1 0 1 2 1 1 1 1 2 2 2 2 2 2 1 3 4 4 3 4 7 9 8 5 6 5 2 3 2 5 3 2 5 7 8 5 6 5 5 4 4 7 8 9
4 3 4 8 2 3 4 4 1 2 1 2 1 2 2 2 2 2 2 3 2 1 2 1 4 11 6 4 5 11 13 8 3 3 4 4 5 7 8 8 10 5 2 7 7 6 6 8 8 8 9 10 10 9
6 5 4 4 4 3 4 3 1 1 1 1 3 2 2 2 2 3 2 1 1 2 4 6 4 3 3 4 3 2 8 10 6 6 5 5 3 4 10 9 12 7 7 2 7 7 8 11 11 11 12 12 11 11
4 6 4 5 4 5 4 5 4 2 2 2 1 2 2 2 2 2 3 1 2 3 4 4 4 4 2 1 2 5 6 7 3 4 7 5 5 6 7 11 15 5 4 5 5 7 11 13 13 13 13 14 14 12
5 3 3 3 3 3 3 3 3 3 3 4 4 4 2 2 3 2 2 1 1 2 2 4 3 3 2 3 3 3 6 10 7 2 5 7 7 5 3 4 3 5 13 5 7 10 12 15 16 15 14 13 13 13
4 3 2 3 3 4 3 2 3 2 3 3 3 4 3 2 2 2 1 2 2 5 7 5 5 3 3 5 8 9 11 9 7 8 11 8 3 6 7 4 3 9 11 11 7 11 12 15 18 18 17 16 17 17
3 1 1 4 3 2 2 2 3 3 3 3 4 3 2 2 2 2 2 6 8 8 6 3 3 3 2 6 9 13 12 14 7 3 5 10 11 11 11 11 10 11 13 11 10 8 7 12 17 20 20 19 19 18
2 2 2 4 4 2 0 2 2 1 1 2 2 1 1 2 2 2 3 7 5 4 6 6 8 7 10 13 16 18 21 20 12 8 8 3 3 10 18 14 12 12 12 14 13 11 10 9 13 17 21 22 19 19
3 1 2 1 1 3 4 3 3 3 2 0 2 2 2 1 4 6 7 6 6 5 6 6 8 10 9 9 8 14 18 18 19 11 2 2 5 12 15 15 14 13 12 11 12 12 9 6 4 8 14 17 18 18
1 2 2 1 3 3 3 3 4 3 1 2 2 2 2 3 5 6 10 7 6 7 8 8 11 13 13 11 9 6 5 14 13 11 10 9 10 12 13 15 14 13 12 12 10 9 9 8 6 12 16 18 19 20
2 3 3 1 4 4 4 3 2 0 1 1 1 2 2 2 1 1 2 8 8 7 7 6 6 6 8 9 7 7 5 7 9 11 12 12 12 12 13 14 14 12 11 12 9 8 8 8 5 10 15 18 20 22
2 1 1 1 4 5 3 3 2 1 2 1 1 2 2 3 3 3 4 3 5 5 6 6 1 2 6 10 10 9 8 8 8 8 9 10 11 12 13 14 13 11 11 12 10 7 8 7 4 5 8 13 18 20
Wind_Direction
316 316 306 296 275 257 245 233 226 221 211 209 205 196 195 191 178 165 154 164 128 98 203 148 154 126 116 143 136 200 87 359 76 117 137 205 161 232 300 243 190 189 166 200 154 183 275 198 259 156 227 282 284 292
328 321 311 295 278 259 241 230 220 216 208 201 202 198 190 184 181 171 142 157 137 94 168 155 171 198 144 105 124 259 186 177 163 102 69 103 99 193 194 244 208 233 192 190 180 214 234 198 223 271 268 268 291 277
334 328 321 305 283 261 242 224 213 206 204 195 193 193 185 180 179 175 163 151 135 87 12 73 211 218 211 237 233 133 273 157 169 143 147 154 182 141 189 233 227 250 184 222 105 254 247 262 264 267 260 270 275 293
343 342 334 323 305 276 233 210 199 194 194 187 185 185 178 176 179 171 164 162 131 108 127 275 172 163 199 241 223 228 155 100 93 76 115 143 173 183 224 249 212 197 159 203 248 270 278 265 259 264 269 268 292 294
354 357 356 358 357 350 178 179 179 180 182 179 179 179 176 175 171 161 161 171 166 119 173 239 24 209 199 212 209 186 132 112 114 92 114 205 198 183 217 274 251 186 240 214 242 251 225 264 268 243 266 274 289 297
7 12 20 36 60 106 135 152 158 168 172 174 174 170 168 169 146 129 103 184 187 94 85 84 310 259 177 193 197 164 148 108 114 144 206 223 237 161 242 247 257 225 234 231 247 253 246 257 263 260 265 277 289 293
22 29 40 60 85 108 128 141 153 161 167 170 167 163 163 148 140 135 172 170 183 160 67 350 353 10 150 111 68 94 84 138 129 184 213 217 200 189 238 263 273 256 255 247 258 263 269 262 267 262 258 283 296 288
33 43 57 76 93 105 116 125 136 146 149 148 151 150 135 129 111 68 73 150 162 108 86 109 273 32 16 117 100 354 108 40 237 213 25 211 231 205 253 256 270 275 276 270 247 244 246 257 258 267 285 287 305 307
48 51 74 87 100 109 115 119 124 131 134 126 123 121 105 96 83 104 130 133 107 116 134 158 163 225 22 84 107 83 108 160 284 236 221 180 208 227 251 298 305 290 235 237 261 255 251 244 267 270 266 291 306 338
60 61 67 100 110 119 117 121 120 117 120 117 109 77 82 109 123 112 84 62 14 2 63 193 63 235 112 82 95 95 323 242 254 244 98 232 252 299 327 300 281 275 213 245 257 261 226 235 257 246 50 20 29 345
71 75 70 93 111 115 114 119 121 119 119 77 72 68 117 130 107 72 122 135 150 192 195 213 187 157 255 114 168 177 178 197 254 263 182 244 262 331 326 342 346 321 242 316 347 11 24 323 294 68 43 37 33 11
77 86 93 100 109 115 115 113 112 98 82 107 112 99 87 50 49 84 100 139 192 211 169 170 198 186 178 105 102 186 174 165 248 178 237 264 269 336 343 350 349 23 48 60 56 57 62 57 53 57 39 22 13 358
87 89 94 100 118 115 96 119 116 112 105 106 79 89 116 86 74 154 178 184 207 179 168 162 138 147 73 67 76 133 215 229 90 236 246 227 27 357 346 345 21 20 46 64 64 57 56 57 52 44 31 17 23 24
64 79 94 82 102 107 116 113 113 102 53 73 115 108 174 183 229 192 184 181 220 134 148 129 99 128 131 106 149 180 235 252 253 230 248 292 40 7 6 17 44 38 38 49 51 49 44 43 42 41 36 29 27 24
68 81 90 116 102 92 98 99 51 49 68 79 126 182 189 206 58 307 180 355 224 138 132 91 73 100 121 122 191 193 258 253 216 212 231 114 109 58 30 28 40 46 41 44 40 43 36 35 39 42 40 45 44 40
79 60 39 118 151 116 109 11 5 70 44 55 74 78 26 64 308 232 173 266 190 133 80 67 130 81 205 161 172 214 231 234 231 166 175 138 106 92 77 47 38 35 42 46 43 32 38 42 44 50 57 54 51 51
18 67 36 70 161 123 312 305 351 42 115 160 283 95 122 145 180 216 175 238 162 105 153 130 132 197 117 186 226 196 215 264 216 103 121 131 126 126 107 81 130 54 37 21 15 17 13 17 43 69 58 43 53 51
78 55 42 78 152 165 225 58 74 16 229 212 185 214 206 207 160 204 234 200 155 162 136 193 139 145 190 201 231 225 123 30 87 133 138 135 138 171 207 227 211 196 192 224 277 282 309 335 19 46 78 66 58 52
316 303 322 347 175 128 270 205 203 273 223 207 193 160 186 176 194 236 216 205 198 183 118 153 151 182 215 240 288 281 190 154 163 160 175 178 190 203 202 204 197 185 177 187 249 299 295 341 4 20 330 25 58 48
37 34 338 265 199 77 268 252 202 281 188 226 133 151 166 205 161 183 287 137 149 143 142 175 165 178 221 342 335 8 356 164 121 89 252 267 251 249 256 242 236 238 209 196 215 264 215 194 357 359 3 95 87 69
57 15 358 22 121 219 259 261 260 209 274 207 174 130 140 169 280 126 104 193 42 51 99 106 137 91 91 64 38 334 32 70 63 56 21 333 2 309 243 247 259 226 211 227 228 263 243 248 250 224 207 147 143 130
1 18 46 11 1 261 272 264 227 273 126 124 155 140 121 224 218 193 101 62 57 14 358 360 111 113 90 60 30 335 57 68 63 55 35 19 16 354 342 322 237 222 220 227 232 239 239 207 179 172 159 148 146 140
10 26 32 17 25 39 256 349 226 205 150 213 167 202 231 217 166 95 77 46 60 342 307 303 69 91 94 81 60 43 43 45 37 18 15 5 1 9 350 338 322 247 231 244 224 229 201 179 170 167 159 153 148 140
21 45 23 21 17 301 328 321 290 258 36 200 189 205 216 167 107 66 92 84 16 6 20 29 55 83 60 48 42 21 18 13 7 355 3 1 360 348 339 328 323 275 254 225 190 183 181 177 174 171 168 162 163 158
61 3 32 355 343 356 359 344 331 339 246 242 160 258 231 170 95 100 141 130 52 13 7 13 45 52 79 5 343 1 25 12 342 343 343 17 340 335 335 339 342 272 225 190 194 194 189 184 184 183 181 179 174 170
68 311 51 331 314 341 331 332 336 343 348 342 8 331 317 88 99 155 95 334 39 34 346 0 354 5 27 28 348 336 327 331 323 278 303 351 354 343 333 337 342 10 13 335 260 222 207 202 197 193 194 194 186 176
50 314 328 336 315 297 304 5 332 9 357 2 356 322 330 110 124 80 116 30 356 351 329 329 326 321 322 326 332 329 327 322 295 282 293 314 42 47 35 7 349 352 358 352 328 248 230 218 208 205 204 200 196 192
193 91 345 298 322 311 330 2 354 349 26 4 329 6 8 356 208 344 4 338 335 329 325 334 351 339 350 13 26 14 1 354 319 254 154 114 76 56 41 26 14 8 4 0 354 340 288 253 228 211 201 198 198 198
12 307 51 341 333 346 219 181 254 270 357 347 299 279 116 74 350 332 339 344 356 24 28 20 19 68 90 77 61 49 42 36 42 67 61 18 354 358 7 7 3 358 355 352 350 340 327 290 251 229 210 199 197 193
282 42 56 36 105 253 242 162 235 272 274 321 106 111 110 100 19 39 29 26 36 23 23 41 46 56 37 35 20 45 48 47 47 46 52 7 328 349 358 357 353 351 344 340 341 341 340 326 230 192 179 175 176 173
11 63 49 207 241 251 235 280 288 241 311 66 56 108 141 166 192 48 40 46 56 62 55 35 45 48 43 28 14 6 1 29 31 29 22 9 360 352 347 344 344 341 341 337 333 332 330 329 217 185 176 173 177 176
28 162 134 269 279 293 12 27 277 186 331 90 161 123 134 100 195 255 37 46 47 33 29 22 21 16 43 48 54 52 33 13 11 7 2 357 350 343 337 332 330 328 329 331 319 314 307 313 280 208 196 192 187 186
6 56 90 3 335 336 314 14 304 310 31 106 260 142 155 158 198 209 164 41 49 26 358 345 352 118 92 60 46 35 25 14 1 349 343 342 338 335 335 337 335 328 322 321 319 286 280 282 251 212 198 196 192 187